星链-36032(STARLINK-36032)

导读 | 豆包AI

STARLINK-36032是美国SpaceX星链星座的卫星,于2025年11月22日发射升空,属于星链计划低轨互联网卫星组网部署的最新批次。它延续了星链卫星的设计,依托近地轨道为全球提供高速宽带互联网服务,进一步完善了星链星座的覆盖密度与服务能力,推进SpaceX全球互联网络的布局。

基本信息
目录编号:
66594
目录名称:
STARLINK-36032
国际标识:
2025-270G
轨道中心:
EARTH
卫星名称:
星链-36032
卫星全名:
星链-36032(STARLINK-36032)
卫星状态:
在轨 (已飞行112 天)
发射日期:
2025-11-22 UTC
国别 :
美国 (US)
星等 :
--
轨道信息
数据来源 国际轨道数据
星历时间: 2026-03-13T14:51:56+0800
23小时前
查看轨道信息
半长轴: 6861.125km
偏心率: 0.0001366
轨道倾角: 43.005°
近地点辐角 277.476°
升交点赤经 36.063°
平近点角 82.594°
近地点: 482.05km
远地点: 483.926km
周期: 94.265分钟
每日圈数: 15.276005
详细信息
固有亮度:
5
最大亮度:
2.5
卫星平台:
Starlink V1.0
覆盖范围:
全球
运营商:
太空探索技术公司
运营商所在国:
美国
制造商(研发单位):
太空探索技术公司
制造商所在国:
美国
使用方式:
暂无
卫星简介
Starlink 计划是 SpaceX 推出的全球卫星互联网项目,通过发射低轨道卫星,为全球尤其是偏远地区提供高速、低延迟的互联网服务。自 2019 年起,Starlink 已部署数千颗卫星,旨在缩小全球数字鸿沟,推动互联网普及。该项目还为军事、航空等行业提供通信支持,带来广泛经济效益。
2D轨道图
3D轨道图
轨道高度分析图
轨道倾角分析图
轨道综合分析图
查看轨道综合分析图